Marrakech, Morocco

7:06 PM WEST on April 23, 2017 (GMT +0100)
Marrakech

Weather History for GMMX - November, 2012

Change the Weather History Date:

Thursday, November 1, 2012

  Actual Average Record
Temperature  
Mean Temperature 70 °F -  
Max Temperature 78 °F 70 °F 89 °F (2014)
Min Temperature 63 °F 49 °F 48 °F (2007)
Cooling Degree Days 6    
Growing Degree Days 20 (Base 50)    
Moisture  
Dew Point 66 °F    
Average Humidity 87    
Maximum Humidity 100    
Minimum Humidity 58    
Precipitation  
Precipitation 0.00 in 0.05 in - ()
Sea Level Pressure  
Sea Level Pressure 29.95 in    
Wind  
Wind Speed 4 mph ()    
Max Wind Speed 14 mph    
Max Gust Speed -    
Visibility 6.1 miles    
Events      
Averages and records for this station are not official NWS values.
T = Trace of Precipitation, MM = Missing Value Source: Averaged Metar Reports

Daily Weather History Graph

Daily Weather History Graph

Search for Another Location

Airport or City:

Trip Planner

Search our weather history database for the weather conditions in past years. The results will help you decide how hot, cold, wet, or windy it might be!

Date:

Astronomy

Nov. 01, 2012 Rise Set
Actual Time 6:48 AM WET 5:42 PM WET
Civil Twilight 6:23 AM WET 6:07 PM WET
Nautical Twilight 5:54 AM WET 6:36 PM WET
Astronomical Twilight 5:25 AM WET 7:04 PM WET
Moon 7:36 PM WET (11/1) 9:02 AM WET (11/1)
Length of Visible Light 11h 44m
Length of Day
10h 54m
Waning Gibbous, 94% of the Moon is Illuminated
Nov 1
Waning Gibbous
Nov 7
Last Quarter
Nov 13
New
Nov 20
First Quarter
Nov 28
Full

Hourly Weather History & Observations

Time (WET) Temp. Dew Point Humidity Pressure Visibility Wind Dir Wind Speed Gust Speed Precip Events Conditions
12:00 AM 66 °F 65 °F 98% 29.78 in 6 mi Calm Calm - -   Partly Cloudy
12:00 AM 66.2 °F 66.2 °F 100% 29.83 in 6.2 mi Calm Calm - N/A   Scattered Clouds
12:30 AM 64.4 °F 64.4 °F 100% 29.83 in 6.2 mi Calm Calm - N/A   Scattered Clouds
1:00 AM 64.4 °F 64.4 °F 100% 29.83 in 5.0 mi Calm Calm - N/A   Scattered Clouds
1:30 AM 64.4 °F 64.4 °F 100% 29.83 in 5.0 mi Calm Calm - N/A   Scattered Clouds
2:00 AM 64.4 °F 64.4 °F 100% 29.86 in 4.3 mi Calm Calm - N/A   Scattered Clouds
2:30 AM 64.4 °F 64.4 °F 100% 29.86 in 5.6 mi WNW 1.2 mph - N/A   Scattered Clouds
3:00 AM 64 °F 64 °F 100% 29.82 in 6 mi SW 3.5 mph - -   Partly Cloudy
3:00 AM 64.4 °F 64.4 °F 100% 29.86 in 6.2 mi SW 2.3 mph - N/A   Scattered Clouds
3:30 AM 64.4 °F 64.4 °F 100% 29.86 in 6.2 mi South 3.5 mph - N/A   Scattered Clouds
4:00 AM 64.4 °F 64.4 °F 100% 29.86 in 6.2 mi SSE 2.3 mph - N/A   Scattered Clouds
4:30 AM 64.4 °F 64.4 °F 100% 29.86 in 6.2 mi SSE 4.6 mph - N/A   Scattered Clouds
5:00 AM 64.4 °F 64.4 °F 100% 29.86 in 5.6 mi Variable 2.3 mph - N/A   Scattered Clouds
5:30 AM 64.4 °F 64.4 °F 100% 29.89 in 5.6 mi Variable 2.3 mph - N/A   Scattered Clouds
6:00 AM 64 °F 64 °F 99% 29.86 in 6 mi SSE 4.6 mph - -   Partly Cloudy
6:00 AM 64.4 °F 64.4 °F 100% 29.89 in 6.2 mi SSE 4.6 mph - N/A   Scattered Clouds
6:30 AM 64.4 °F 64.4 °F 100% 29.92 in 5.6 mi Calm Calm - N/A   Scattered Clouds
7:00 AM 64.4 °F 64.4 °F 100% 29.92 in 6.2 mi SE 3.5 mph - N/A   Mostly Cloudy
7:30 AM 64.4 °F 64.4 °F 100% 29.92 in 6.2 mi East 3.5 mph - N/A   Mostly Cloudy
8:00 AM 66.2 °F 66.2 °F 100% 29.92 in 6.2 mi SSE 5.8 mph - N/A   Mostly Cloudy
8:30 AM 68.0 °F 64.4 °F 88% 29.95 in 6.2 mi South 5.8 mph - N/A   Scattered Clouds
9:00 AM 70 °F 64 °F 77% 29.91 in 6 mi SSW 6.9 mph - -   Partly Cloudy
9:00 AM 69.8 °F 66.2 °F 88% 29.95 in 6.2 mi SSW 6.9 mph - N/A   Scattered Clouds
9:30 AM 71.6 °F 64.4 °F 78% 29.98 in 6.2 mi SSW 3.5 mph - N/A   Scattered Clouds
10:00 AM 73.4 °F 64.4 °F 73% 29.98 in 6.2 mi West 6.9 mph - N/A   Scattered Clouds
10:30 AM 73.4 °F 66.2 °F 78% 30.01 in 6.2 mi West 5.8 mph - N/A   Scattered Clouds
11:00 AM 75.2 °F 66.2 °F 73% 29.98 in 6.2 mi WNW 4.6 mph - N/A   Scattered Clouds
11:30 AM 75.2 °F 66.2 °F 73% 29.98 in 6.2 mi WSW 8.1 mph - N/A   Scattered Clouds
12:00 PM 76 °F 66 °F 65% 29.92 in 6 mi West 9.2 mph - -   Mostly Cloudy
12:00 PM 77.0 °F 68.0 °F 74% 29.98 in 6.2 mi West 8.1 mph - N/A   Scattered Clouds
12:30 PM 75.2 °F 66.2 °F 73% 29.98 in 6.2 mi West 9.2 mph - N/A   Scattered Clouds
1:00 PM 77.0 °F 66.2 °F 69% 29.98 in 6.2 mi West 11.5 mph - N/A   Mostly Cloudy
1:30 PM 78.8 °F 66.2 °F 65% 29.98 in 6.2 mi WSW 12.7 mph - N/A   Mostly Cloudy
2:00 PM 78.8 °F 66.2 °F 65% 29.98 in 6.2 mi West 13.8 mph - N/A   Mostly Cloudy
2:30 PM 77.0 °F 66.2 °F 69% 29.98 in 6.2 mi WNW 12.7 mph - N/A   Mostly Cloudy
3:00 PM 78 °F 66 °F 58% 29.89 in 6 mi West 10.4 mph - -   Mostly Cloudy
3:00 PM 78.8 °F 66.2 °F 65% 29.98 in 6.2 mi WNW 9.2 mph - N/A   Mostly Cloudy
3:30 PM 77.0 °F 66.2 °F 69% 29.98 in 6.2 mi West 12.7 mph - N/A   Mostly Cloudy
4:00 PM 75.2 °F 66.2 °F 73% 29.98 in 6.2 mi WNW 9.2 mph - N/A   Mostly Cloudy
4:30 PM 75.2 °F 68.0 °F 78% 29.98 in 6.2 mi NW 9.2 mph - N/A   Mostly Cloudy
5:00 PM 73.4 °F 68.0 °F 83% 30.01 in 6.2 mi WNW 9.2 mph - N/A   Partly Cloudy
5:30 PM 73.4 °F 68.0 °F 83% 30.01 in 6.2 mi WNW 11.5 mph - N/A   Scattered Clouds
6:00 PM 72 °F 67 °F 80% 29.95 in 6 mi WNW 8.1 mph - -   Partly Cloudy
6:00 PM 71.6 °F 68.0 °F 88% 30.01 in 6.2 mi WNW 8.1 mph - N/A   Scattered Clouds
6:30 PM 71.6 °F 68.0 °F 88% 30.01 in 6.2 mi WNW 5.8 mph - N/A   Scattered Clouds
7:00 PM 71.6 °F 68.0 °F 88% 30.01 in 6.2 mi WNW 3.5 mph - N/A   Scattered Clouds
7:30 PM 71.6 °F 68.0 °F 88% 30.04 in 6.2 mi Variable 1.2 mph - N/A   Scattered Clouds
8:00 PM 71.6 °F 68.0 °F 88% 30.04 in 6.2 mi SW 3.5 mph - N/A   Scattered Clouds
8:30 PM 71.6 °F 68.0 °F 88% 30.04 in 6.2 mi Variable 2.3 mph - N/A   Scattered Clouds
9:00 PM 70 °F 68 °F 90% 30.00 in 6 mi Calm Calm - -   Mostly Cloudy
9:00 PM 69.8 °F 68.0 °F 94% 30.06 in 6.2 mi Calm Calm - N/A   Scattered Clouds
9:30 PM 69.8 °F 68.0 °F 94% 30.06 in 6.2 mi WNW 2.3 mph - N/A   Scattered Clouds
10:00 PM 69.8 °F 68.0 °F 94% 30.06 in 6.2 mi Variable 2.3 mph - N/A   Scattered Clouds
10:30 PM 69.8 °F 66.2 °F 88% 30.06 in 6.2 mi WNW 4.6 mph - N/A   Scattered Clouds
11:00 PM 68.0 °F 66.2 °F 94% 30.06 in 6.2 mi Calm Calm - N/A   Scattered Clouds
11:30 PM 68.0 °F 66.2 °F 94% 30.06 in 6.2 mi Calm Calm - N/A   Scattered Clouds